Weather History for KNBC - April, 2012

Change the Weather History Date:

Friday, April 6, 2012

  Actual Average Record
Temperature  
Mean Temperature 56 °F -  
Max Temperature 66 °F 72 °F 91 °F (1967)
Min Temperature 46 °F 51 °F 31 °F (1944)
Degree Days  
Heating Degree Days 9    
Growing Degree Days 6 (Base 50)    
Moisture  
Dew Point 53 °F    
Average Humidity 83    
Maximum Humidity 96    
Minimum Humidity 53    
Precipitation  
Precipitation 0.11 in - - ()
Sea Level Pressure  
Sea Level Pressure 29.83 in    
Wind  
Wind Speed 8 mph (North)    
Max Wind Speed 18 mph    
Max Gust Speed 25 mph    
Visibility 8 miles    
Events Rain    
Averages and records for this station are not official NWS values.
T = Trace of Precipitation, MM = Missing Value Source: NWS Daily Summary

Daily Weather History Graph

Daily Weather History Graph

Search for Another Location

Airport or City:

Trip Planner

Search our weather history database for the weather conditions in past years. The results will help you decide how hot, cold, wet, or windy it might be!

Date:

Astronomy

Apr. 06, 2012 Rise Set
Actual Time 7:04 AM EDT 7:46 PM EDT
Civil Twilight 6:39 AM EDT 8:11 PM EDT
Nautical Twilight 6:09 AM EDT 8:40 PM EDT
Astronomical Twilight 5:39 AM EDT 9:11 PM EDT
Moon 8:00 PM EDT (4/6) 6:37 AM EDT (4/6)
Length of Visible Light 13h 32m
Length of Day
12h 42m
Full, 100% of the Moon is Illuminated
Apr 6
Full
Apr 6
Full
Apr 13
Last Quarter
Apr 21
New
Apr 29
First Quarter

Hourly Weather History & Observations

Time (EDT) Temp. Windchill Dew Point Humidity Pressure Visibility Wind Dir Wind Speed Gust Speed Precip Events Conditions
12:17 AM 66.2 °F - 62.6 °F 88% 29.72 in 10.0 mi WNW 4.6 mph - N/A   Overcast
12:26 AM 66.2 °F - 64.4 °F 94% 29.72 in 10.0 mi NNW 3.5 mph - N/A   Overcast
12:36 AM 66.2 °F - 62.6 °F 88% 29.72 in 10.0 mi NNW 5.8 mph - N/A   Overcast
12:53 AM 66.2 °F - 62.6 °F 88% 29.71 in 10.0 mi Calm Calm - N/A   Overcast
12:56 AM 66.0 °F - 63.0 °F 90% 29.72 in 10.0 mi Calm Calm - N/A   Overcast
1:56 AM 66.0 °F - 63.0 °F 90% 29.70 in 10.0 mi NW 4.6 mph - 0.01 in Rain Light Rain
2:56 AM 66.0 °F - 63.0 °F 90% 29.70 in 9.0 mi NW 5.8 mph - 0.01 in Rain Light Rain
3:32 AM 64.4 °F - 62.6 °F 94% 29.69 in 10.0 mi NW 3.5 mph - 0.08 in   Overcast
3:53 AM 64.4 °F - 62.6 °F 94% 29.69 in 10.0 mi NNW 4.6 mph - 0.08 in   Overcast
3:56 AM 64.9 °F - 63.0 °F 93% 29.69 in 10.0 mi NNW 4.6 mph - 0.08 in   Overcast
4:19 AM 64.4 °F - 62.6 °F 94% 29.68 in 7.0 mi North 4.6 mph - N/A   Overcast
4:56 AM 63.0 °F - 60.1 °F 90% 29.70 in 4.0 mi NNE 10.4 mph - N/A   Overcast
5:56 AM 60.1 °F - 59.0 °F 96% 29.71 in 3.0 mi NNE 9.2 mph - N/A   Overcast
6:07 AM 60.8 °F - 57.2 °F 88% 29.71 in 2.5 mi North 8.1 mph - N/A   Overcast
6:27 AM 60.8 °F - 57.2 °F 88% 29.72 in 1.5 mi NNE 8.1 mph - N/A   Overcast
6:40 AM 59.0 °F - 57.2 °F 94% 29.74 in 2.0 mi NNE 9.2 mph - N/A   Overcast
6:56 AM 57.9 °F - 55.9 °F 93% 29.75 in 2.5 mi NNE 11.5 mph - N/A   Overcast
7:05 AM 57.2 °F - 55.4 °F 94% 29.76 in 4.0 mi NNE 12.7 mph - 0.00 in   Drizzle
7:36 AM 57.2 °F - 53.6 °F 88% 29.77 in 3.0 mi NNE 13.8 mph - 0.00 in   Drizzle
7:56 AM 55.0 °F - 53.1 °F 93% 29.79 in 3.0 mi NNE 16.1 mph 21.9 mph 0.00 in   Drizzle
8:54 AM 53.6 °F - 50.0 °F 88% 29.80 in 10.0 mi NE 17.3 mph - 0.00 in   Overcast
8:56 AM 53.1 °F - 50.0 °F 89% 29.81 in 10.0 mi NE 16.1 mph - 0.00 in   Overcast
9:56 AM 53.1 °F - 50.0 °F 89% 29.83 in 10.0 mi NNE 16.1 mph - N/A   Overcast
10:56 AM 53.1 °F - 48.9 °F 86% 29.87 in 10.0 mi NNE 12.7 mph - N/A   Mostly Cloudy
11:56 AM 52.0 °F - 46.9 °F 83% 29.90 in 10.0 mi NNE 18.4 mph 24.2 mph 0.01 in   Overcast
12:05 PM 51.8 °F - 46.4 °F 82% 29.90 in 10.0 mi NNE 16.1 mph 25.3 mph N/A   Overcast
12:56 PM 53.1 °F - 46.0 °F 77% 29.92 in 10.0 mi NNE 16.1 mph - N/A   Overcast
1:47 PM 53.6 °F - 44.6 °F 72% 29.93 in 10.0 mi NNE 16.1 mph - N/A   Overcast
1:56 PM 53.1 °F - 45.0 °F 74% 29.94 in 10.0 mi NNE 13.8 mph - N/A   Overcast
2:56 PM 55.0 °F - 45.0 °F 69% 29.94 in 10.0 mi NNE 13.8 mph - N/A   Overcast
3:41 PM 57.2 °F - 44.6 °F 63% 29.94 in 10.0 mi NNE 16.1 mph 23.0 mph N/A   Overcast
3:56 PM 60.1 °F - 45.0 °F 57% 29.94 in 10.0 mi NNE 13.8 mph 21.9 mph N/A   Mostly Cloudy
4:56 PM 61.0 °F - 44.1 °F 54% 29.96 in 10.0 mi NE 13.8 mph 20.7 mph N/A   Clear
5:56 PM 60.1 °F - 43.0 °F 53% 29.97 in 10.0 mi NNE 12.7 mph 23.0 mph N/A   Clear
6:56 PM 59.0 °F - 42.1 °F 53% 29.99 in 10.0 mi NNE 12.7 mph - N/A   Clear
7:56 PM 55.9 °F - 41.0 °F 57% 30.01 in 10.0 mi NNE 6.9 mph - N/A   Clear
8:56 PM 52.0 °F - 42.1 °F 69% 30.03 in 10.0 mi NNE 3.5 mph - N/A   Clear
9:56 PM 48.9 °F - 43.0 °F 80% 30.06 in 10.0 mi WSW 3.5 mph - N/A   Clear
10:56 PM 46.9 °F - 44.1 °F 90% 30.08 in 10.0 mi WSW 5.8 mph - N/A   Clear
11:56 PM 46.0 °F 44.8 °F 43.0 °F 89% 30.09 in 10.0 mi West 3.5 mph - N/A   Clear